TimeCST,TemperatureF,Dew PointF,Humidity,Sea Level PressureIn,VisibilityMPH,Wind Direction,Wind SpeedMPH,Gust SpeedMPH,PrecipitationIn,Events,Conditions,WindDirDegrees,DateUTC
12:10 AM,12.2,10.4,92,30.21,10.0,WSW,18.4,21.9,N/A,,Clear,240,2013-12-12 06:10:00
12:30 AM,12.2,10.4,92,30.20,10.0,WSW,19.6,-,N/A,,Clear,240,2013-12-12 06:30:00
12:50 AM,12.2,10.4,92,30.20,10.0,WSW,17.3,-,N/A,,Clear,250,2013-12-12 06:50:00
1:10 AM,10.4,10.4,100,30.19,10.0,WSW,15.0,-,N/A,,Clear,250,2013-12-12 07:10:00
1:30 AM,10.4,10.4,100,30.19,10.0,WSW,15.0,-,N/A,,Clear,240,2013-12-12 07:30:00
1:50 AM,10.4,10.4,100,30.18,10.0,WSW,13.8,-,N/A,,Clear,250,2013-12-12 07:50:00
2:10 AM,10.4,10.4,100,30.20,10.0,WSW,12.7,-,N/A,,Clear,250,2013-12-12 08:10:00
2:30 AM,10.4,10.4,100,30.19,10.0,WSW,12.7,-,N/A,,Clear,250,2013-12-12 08:30:00
2:50 AM,10.4,10.4,100,30.19,10.0,West,11.5,-,N/A,,Clear,260,2013-12-12 08:50:00
3:10 AM,10.4,10.4,100,30.19,10.0,West,10.4,-,N/A,,Clear,260,2013-12-12 09:10:00
3:30 AM,10.4,10.4,100,30.20,10.0,West,10.4,-,N/A,,Clear,260,2013-12-12 09:30:00
3:50 AM,10.4,10.4,100,30.20,10.0,West,10.4,-,N/A,,Clear,270,2013-12-12 09:50:00
4:10 AM,12.2,10.4,92,30.19,10.0,West,10.4,-,N/A,,Clear,270,2013-12-12 10:10:00
4:30 AM,12.2,10.4,92,30.19,10.0,West,9.2,-,N/A,,Clear,270,2013-12-12 10:30:00
4:50 AM,12.2,10.4,92,30.19,10.0,West,9.2,-,N/A,,Clear,280,2013-12-12 10:50:00
5:10 AM,12.2,10.4,92,30.20,10.0,West,6.9,-,N/A,,Clear,270,2013-12-12 11:10:00
5:30 AM,12.2,10.4,92,30.21,10.0,West,6.9,-,N/A,,Clear,280,2013-12-12 11:30:00
5:50 AM,14.0,12.2,93,30.20,10.0,West,4.6,-,N/A,,Clear,280,2013-12-12 11:50:00
6:10 AM,14.0,12.2,93,30.21,10.0,SW,4.6,-,N/A,,Mostly Cloudy,230,2013-12-12 12:10:00
6:30 AM,14.0,14.0,100,30.21,10.0,West,4.6,-,N/A,,Overcast,260,2013-12-12 12:30:00
6:50 AM,14.0,14.0,100,30.20,10.0,SW,4.6,-,N/A,,Overcast,230,2013-12-12 12:50:00
7:10 AM,14.0,14.0,100,30.20,10.0,WSW,4.6,-,N/A,,Overcast,240,2013-12-12 13:10:00
7:30 AM,14.0,14.0,100,30.22,10.0,WSW,3.5,-,N/A,,Overcast,250,2013-12-12 13:30:00
7:50 AM,14.0,14.0,100,30.22,10.0,Calm,Calm,-,N/A,,Overcast,0,2013-12-12 13:50:00
8:10 AM,14.0,14.0,100,30.21,10.0,Calm,Calm,-,N/A,,Mostly Cloudy,0,2013-12-12 14:10:00
8:30 AM,14.0,14.0,100,30.21,10.0,South,6.9,-,N/A,,Mostly Cloudy,190,2013-12-12 14:30:00
8:50 AM,12.2,12.2,100,30.21,10.0,SSW,5.8,-,N/A,,Mostly Cloudy,210,2013-12-12 14:50:00
9:10 AM,14.0,14.0,100,30.21,10.0,West,3.5,-,N/A,,Mostly Cloudy,260,2013-12-12 15:10:00
9:30 AM,15.8,14.0,93,30.21,10.0,WSW,6.9,-,N/A,,Mostly Cloudy,240,2013-12-12 15:30:00
9:50 AM,15.8,14.0,93,30.21,10.0,SW,5.8,-,N/A,,Mostly Cloudy,230,2013-12-12 15:50:00
10:10 AM,17.6,15.8,93,30.21,10.0,SW,5.8,-,N/A,,Scattered Clouds,230,2013-12-12 16:10:00
10:30 AM,17.6,15.8,93,30.21,10.0,SW,6.9,-,N/A,,Clear,220,2013-12-12 16:30:00
10:50 AM,17.6,15.8,93,30.21,10.0,SW,6.9,-,N/A,,Clear,220,2013-12-12 16:50:00
11:10 AM,19.4,15.8,86,30.21,10.0,SSW,9.2,-,N/A,,Clear,210,2013-12-12 17:10:00
11:30 AM,19.4,15.8,86,30.20,10.0,SW,6.9,-,N/A,,Clear,220,2013-12-12 17:30:00
11:50 AM,21.2,15.8,80,30.18,10.0,SSW,10.4,-,N/A,,Clear,210,2013-12-12 17:50:00
12:10 PM,21.2,15.8,80,30.18,10.0,SW,8.1,-,N/A,,Partly Cloudy,220,2013-12-12 18:10:00
12:30 PM,23.0,17.6,80,30.17,10.0,SSW,8.1,-,N/A,,Mostly Cloudy,210,2013-12-12 18:30:00
12:50 PM,23.0,19.4,86,30.17,10.0,SW,10.4,-,N/A,,Overcast,230,2013-12-12 18:50:00
1:10 PM,24.8,17.6,74,30.16,10.0,SW,9.2,-,N/A,,Overcast,220,2013-12-12 19:10:00
1:30 PM,24.8,19.4,80,30.14,10.0,SW,8.1,-,N/A,,Mostly Cloudy,220,2013-12-12 19:30:00
1:50 PM,24.8,19.4,80,30.14,10.0,SW,9.2,-,N/A,,Mostly Cloudy,220,2013-12-12 19:50:00
2:10 PM,26.6,19.4,74,30.13,10.0,SW,10.4,-,N/A,,Overcast,220,2013-12-12 20:10:00
2:30 PM,26.6,19.4,74,30.12,10.0,SW,6.9,-,N/A,,Overcast,220,2013-12-12 20:30:00
2:50 PM,28.4,21.2,74,30.11,10.0,SSW,6.9,-,N/A,,Mostly Cloudy,210,2013-12-12 20:50:00
3:10 PM,26.6,23.0,86,30.10,10.0,SSW,9.2,-,N/A,,Partly Cloudy,200,2013-12-12 21:10:00
3:30 PM,26.6,21.2,80,30.10,10.0,SSW,8.1,-,N/A,,Clear,210,2013-12-12 21:30:00
3:50 PM,24.8,21.2,86,30.10,10.0,SSW,5.8,-,N/A,,Clear,210,2013-12-12 21:50:00
4:10 PM,24.8,19.4,80,30.09,10.0,SSW,6.9,-,N/A,,Clear,210,2013-12-12 22:10:00
4:30 PM,23.0,19.4,86,30.09,10.0,SSW,6.9,-,N/A,,Clear,200,2013-12-12 22:30:00
4:50 PM,21.2,17.6,86,30.09,10.0,SSW,10.4,-,N/A,,Clear,200,2013-12-12 22:50:00
5:10 PM,19.4,17.6,93,30.09,10.0,SSW,10.4,-,N/A,,Clear,200,2013-12-12 23:10:00
5:30 PM,21.2,17.6,86,30.08,10.0,South,12.7,-,N/A,,Clear,190,2013-12-12 23:30:00
5:50 PM,17.6,15.8,93,30.07,10.0,South,10.4,-,N/A,,Clear,190,2013-12-12 23:50:00
6:10 PM,17.6,15.8,93,30.07,10.0,South,10.4,-,N/A,,Clear,190,2013-12-13 00:10:00
6:30 PM,15.8,15.8,100,30.06,10.0,South,11.5,-,N/A,,Clear,190,2013-12-13 00:30:00
6:50 PM,15.8,15.8,100,30.05,10.0,South,12.7,-,N/A,,Clear,180,2013-12-13 00:50:00
7:10 PM,15.8,14.0,93,30.05,10.0,South,10.4,-,N/A,,Clear,180,2013-12-13 01:10:00
7:30 PM,15.8,14.0,93,30.04,10.0,South,11.5,-,N/A,,Clear,180,2013-12-13 01:30:00
7:50 PM,15.8,14.0,93,30.03,10.0,South,11.5,-,N/A,,Clear,190,2013-12-13 01:50:00
8:10 PM,15.8,14.0,93,30.03,10.0,South,9.2,-,N/A,,Clear,180,2013-12-13 02:10:00
8:30 PM,15.8,15.8,100,30.04,10.0,South,5.8,-,N/A,,Clear,170,2013-12-13 02:30:00
8:50 PM,14.0,14.0,100,30.03,10.0,South,4.6,-,N/A,,Clear,180,2013-12-13 02:50:00
9:10 PM,14.0,14.0,100,30.03,10.0,SSW,4.6,-,N/A,,Clear,200,2013-12-13 03:10:00
9:30 PM,14.0,14.0,100,30.02,10.0,SSW,4.6,-,N/A,,Clear,210,2013-12-13 03:30:00
9:50 PM,14.0,14.0,100,30.01,10.0,SSW,6.9,-,N/A,,Clear,200,2013-12-13 03:50:00
10:10 PM,14.0,14.0,100,30.01,10.0,SSW,5.8,-,N/A,,Clear,210,2013-12-13 04:10:00
10:30 PM,14.0,14.0,100,30.01,10.0,Calm,Calm,-,N/A,,Clear,0,2013-12-13 04:30:00
10:50 PM,12.2,12.2,100,30.01,10.0,ENE,4.6,-,N/A,,Clear,70,2013-12-13 04:50:00
11:10 PM,8.6,8.6,100,30.00,10.0,NE,5.8,-,N/A,,Clear,50,2013-12-13 05:10:00
11:30 PM,10.4,10.4,100,30.00,10.0,NNE,5.8,-,N/A,,Clear,30,2013-12-13 05:30:00
11:50 PM,10.4,10.4,100,30.00,10.0,ENE,4.6,-,N/A,,Clear,70,2013-12-13 05:50:00